Muskegon, MI

7:48 PM EST on November 13, 2019 (GMT -0500)
Muskegon County

Weather History for KMKG - September, 2019

Change the Weather History Date:

Friday, September 27, 2019

  Actual Average Record
Temperature  
Mean Temperature 63 °F 58 °F  
Max Temperature 68 °F 67 °F 81 °F (1946)
Min Temperature 57 °F 48 °F 27 °F (1989)
Degree Days  
Heating Degree Days 2 8  
Month to date heating degree days 26 116  
Since 1 July heating degree days 30 146  
Cooling Degree Days 0 1  
Month to date cooling degree days 82 54  
Year to date cooling degree days 627 561  
Growing Degree Days 12 (Base 50)    
Moisture  
Dew Point 56 °F    
Average Humidity 73    
Maximum Humidity 93    
Minimum Humidity 52    
Precipitation  
Precipitation 1.24 in 0.12 in 1.41 in (1945)
Month to date precipitation 5.44 3.51  
Year to date precipitation 32.57 24.09  
Snow  
Snow 0.00 in 0.00 in T in (1942)
Month to date snowfall 0.0 0.0  
Since 1 July snowfall 0.0 0.0  
Since 1 September snowfall 0.0 0.0  
Snow Depth 0.00 in    
Sea Level Pressure  
Sea Level Pressure 29.78 in    
Wind  
Wind Speed 12 mph (South)    
Max Wind Speed 37 mph    
Max Gust Speed 57 mph    
Visibility 8 miles    
Events Rain , Thunderstorm    
T = Trace of Precipitation, MM = Missing Value Source: NWS Daily Summary

Daily Weather History Graph

Daily Weather History Graph

Search for Another Location

Airport or City:

Astronomy

Sep. 27, 2019 Rise Set
Actual Time 7:37 AM EDT 7:33 PM EDT
Civil Twilight 7:09 AM EDT 8:01 PM EDT
Nautical Twilight 6:36 AM EDT 8:35 PM EDT
Astronomical Twilight 6:02 AM EDT 9:08 PM EDT
Moon 5:53 AM EDT (9/27) 7:27 PM EDT (9/27)
Length of Visible Light 12h 52m
Length of Day
11h 56m
Waning Crescent, 2% of the Moon is Illuminated
Sep 27
Waning Crescent
Sep 28
New
Oct 5
First Quarter
Oct 13
Full
Oct 21
Last Quarter

Hourly Weather History & Observations

Time (EDT) Temp. Dew Point Humidity Pressure Visibility Wind Dir Wind Speed Gust Speed Precip Events Conditions
12:55 AM 57.0 °F 45.0 °F 64% 29.91 in 10.0 mi SSE 9.2 mph - N/A   Partly Cloudy
1:55 AM 57.9 °F 45.0 °F 62% 29.90 in 10.0 mi SSE 8.1 mph - N/A   Mostly Cloudy
2:55 AM 59.0 °F 46.0 °F 62% 29.91 in 10.0 mi SSE 6.9 mph - N/A   Overcast
3:55 AM 59.0 °F 48.0 °F 67% 29.89 in 10.0 mi SE 9.2 mph - N/A   Mostly Cloudy
4:55 AM 60.1 °F 46.9 °F 62% 29.88 in 10.0 mi SSE 8.1 mph - N/A   Overcast
5:55 AM 59.0 °F 45.0 °F 60% 29.89 in 10.0 mi SE 6.9 mph - N/A   Overcast
6:55 AM 57.9 °F 45.0 °F 62% 29.88 in 10.0 mi SE 11.5 mph - N/A   Overcast
7:55 AM 59.0 °F 44.1 °F 58% 29.88 in 10.0 mi SSE 12.7 mph - N/A   Overcast
8:55 AM 59.0 °F 45.0 °F 60% 29.86 in 10.0 mi SE 15.0 mph - 0.00 in Rain Light Rain
9:55 AM 60.1 °F 45.0 °F 57% 29.83 in 10.0 mi SSE 13.8 mph - 0.00 in   Overcast
10:55 AM 62.1 °F 45.0 °F 53% 29.80 in 10.0 mi SSE 12.7 mph 24.2 mph N/A   Overcast
11:55 AM 64.9 °F 46.0 °F 50% 29.81 in 10.0 mi South 15.0 mph - N/A   Overcast
12:55 PM 66.0 °F 48.0 °F 52% 29.78 in 10.0 mi South 12.7 mph - N/A   Overcast
1:03 PM 66.0 °F 48.9 °F 54% 29.77 in 10.0 mi South 10.4 mph - N/A   Overcast
1:21 PM 64.9 °F 52.0 °F 63% 29.76 in 10.0 mi South 15.0 mph 24.2 mph 0.00 in Rain Light Rain
1:55 PM 66.0 °F 55.9 °F 70% 29.67 in 10.0 mi South 34.5 mph 55.2 mph 0.01 in Thunderstorm Mostly Cloudy
2:02 PM 64.9 °F 57.0 °F 75% 29.63 in 10.0 mi South 29.9 mph 56.4 mph 0.00 in Rain , Thunderstorm Light Thunderstorms and Rain
2:19 PM 64.9 °F 59.0 °F 81% 29.67 in 10.0 mi South 18.4 mph 34.5 mph 0.00 in Rain Light Rain
2:55 PM 64.9 °F 60.1 °F 84% 29.76 in 10.0 mi SW 19.6 mph 34.5 mph 0.00 in   Overcast
3:55 PM 66.0 °F 60.1 °F 81% 29.76 in 10.0 mi SSW 20.7 mph 27.6 mph N/A   Overcast
4:55 PM 66.9 °F 62.1 °F 84% 29.72 in 10.0 mi South 10.4 mph - N/A   Overcast
5:55 PM 66.9 °F 61.0 °F 81% 29.71 in 10.0 mi South 6.9 mph - N/A   Overcast
6:55 PM 64.9 °F 61.0 °F 87% 29.71 in 10.0 mi SSE 8.1 mph - 0.01 in   Overcast
7:25 PM 64.9 °F 62.1 °F 90% 29.72 in 2.5 mi SSE 6.9 mph - 0.02 in Rain Light Rain
7:55 PM 66.9 °F 64.9 °F 93% 29.72 in 2.0 mi SSW 12.7 mph 26.5 mph 0.12 in Rain Light Rain
8:39 PM 68.0 °F 64.9 °F 90% 29.74 in 3.0 mi SSW 13.8 mph - 0.11 in Rain Light Rain
8:55 PM 68.0 °F 64.9 °F 90% 29.74 in 3.0 mi SW 12.7 mph 25.3 mph 0.13 in Rain Light Rain
9:06 PM 66.9 °F 64.9 °F 93% 29.72 in 3.0 mi SW 12.7 mph 20.7 mph 0.02 in Rain , Thunderstorm Thunderstorms and Rain
9:31 PM 66.9 °F 64.9 °F 93% 29.73 in 10.0 mi WSW 9.2 mph - 0.06 in   Overcast
9:49 PM 66.2 °F 64.4 °F 94% 29.73 in 9.0 mi WNW 8.1 mph - 0.06 in Thunderstorm Thunderstorm
9:55 PM 66.9 °F 64.0 °F 90% 29.73 in 2.0 mi WNW 8.1 mph - 0.06 in Rain , Thunderstorm Thunderstorms and Rain
10:02 PM 66.0 °F 64.0 °F 93% 29.74 in 1.0 mi WNW 9.2 mph - 0.23 in Rain , Thunderstorm Heavy Thunderstorms and Rain
10:18 PM 66.0 °F 63.0 °F 90% 29.75 in 2.0 mi NW 10.4 mph - 0.43 in Rain , Thunderstorm Heavy Thunderstorms and Rain
10:35 PM 64.9 °F 62.1 °F 90% 29.77 in 1.8 mi NNW 10.4 mph 18.4 mph 0.65 in Rain , Thunderstorm Heavy Thunderstorms and Rain
10:45 PM 64.9 °F 62.1 °F 90% 29.75 in 3.0 mi Calm Calm - 0.76 in Rain , Thunderstorm Heavy Thunderstorms and Rain
10:55 PM 64.9 °F 62.1 °F 90% 29.75 in 5.0 mi South 6.9 mph - 0.80 in Rain , Thunderstorm Thunderstorms and Rain
11:07 PM 64.9 °F 62.1 °F 90% 29.75 in 6.0 mi SE 6.9 mph - 0.02 in Rain , Thunderstorm Light Thunderstorms and Rain
11:18 PM 64.9 °F 62.1 °F 90% 29.74 in 7.0 mi SSE 8.1 mph - 0.05 in Rain Light Rain
11:47 PM 64.9 °F 62.1 °F 90% 29.79 in 10.0 mi WNW 8.1 mph - 0.09 in Rain Light Rain
11:55 PM 64.9 °F 63.0 °F 93% 29.80 in 10.0 mi West 9.2 mph - 0.10 in Rain Light Rain